When you browse on this site, cookies collect data to enhance your experience and personalize the content and advertising you see.
Visit our Privacy Policy to learn more. By continuing to use the site, you agree to this use of cookies and data.
  • In United Kingdom
  • List of Countries
  • For 7 days
  • Water Temperature
  • Satellite Maps
  • Weather Map
  • Weather Widgets
  • user-avatar
    Login

    Hourly Weather Glasgow

    Today, 20 April, Saturday

    Time Temperature Precipitation Wind Pressure Humidity
    00:00 +10°C° 0 mm 5 mps 772 mmHg 80%
    01:00 +10°C° 0 mm 5 mps 771 mmHg 81%
    02:00 +9°C° 0 mm 5 mps 771 mmHg 82%
    03:00 +9°C° 0 mm 5 mps 771 mmHg 83%
    04:00 +9°C° 0 mm 5 mps 771 mmHg 81%
    05:00 +10°C° 0 mm 4 mps 771 mmHg 80%
    06:00 +11°C° 0 mm 4 mps 771 mmHg 78%
    07:00 +13°C° 0 mm 4 mps 771 mmHg 74%
    08:00 +15°C° 0 mm 4 mps 771 mmHg 69%
    09:00 +18°C° 0 mm 4 mps 771 mmHg 65%
    10:00 +19°C° 0 mm 4 mps 771 mmHg 63%
    11:00 +20°C° 0 mm 4 mps 771 mmHg 61%
    12:00 +21°C° 0 mm 4 mps 771 mmHg 59%
    13:00 +20°C° 0.1 mm 3 mps 771 mmHg 63%
    14:00 +19°C° 0.1 mm 3 mps 771 mmHg 67%
    15:00 +19°C° 0.1 mm 3 mps 770 mmHg 72%
    16:00 +18°C° 0.1 mm 3 mps 770 mmHg 75%
    17:00 +17°C° 0.1 mm 2 mps 770 mmHg 78%
    18:00 +16°C° 0.1 mm 2 mps 770 mmHg 82%
    19:00 +15°C° 0.1 mm 2 mps 769 mmHg 84%
    20:00 +14°C° 0.1 mm 2 mps 769 mmHg 86%
    21:00 +13°C° 0.1 mm 2 mps 769 mmHg 88%
    22:00 +13°C° 0 mm 2 mps 768 mmHg 88%
    23:00 +12°C° 0 mm 3 mps 768 mmHg 88%

    Tomorrow, 21 April, Sunday

    Time Temperature Precipitation Wind Pressure Humidity
    00:00 +11°C° 0 mm 3 mps 767 mmHg 87%
    01:00 +12°C° 0 mm 3 mps 766 mmHg 88%
    02:00 +12°C° 0 mm 4 mps 766 mmHg 89%
    03:00 +12°C° 0 mm 4 mps 765 mmHg 90%
    04:00 +12°C° 0 mm 5 mps 764 mmHg 85%
    05:00 +12°C° 0 mm 5 mps 764 mmHg 81%
    06:00 +12°C° 0 mm 5 mps 763 mmHg 77%
    07:00 +13°C° 0 mm 6 mps 763 mmHg 77%
    08:00 +13°C° 0 mm 6 mps 762 mmHg 77%
    09:00 +14°C° 0 mm 6 mps 762 mmHg 76%
    10:00 +15°C° 0 mm 6 mps 761 mmHg 74%
    11:00 +16°C° 0 mm 7 mps 761 mmHg 72%
    12:00 +17°C° 0 mm 7 mps 760 mmHg 70%
    13:00 +17°C° 0 mm 7 mps 760 mmHg 70%
    14:00 +18°C° 0 mm 7 mps 759 mmHg 69%
    15:00 +18°C° 0 mm 7 mps 759 mmHg 68%
    16:00 +17°C° 0 mm 7 mps 758 mmHg 69%
    17:00 +17°C° 0 mm 6 mps 758 mmHg 70%
    18:00 +16°C° 0 mm 6 mps 757 mmHg 71%
    19:00 +15°C° 0 mm 6 mps 757 mmHg 72%
    20:00 +14°C° 0 mm 6 mps 757 mmHg 72%
    21:00 +13°C° 0 mm 6 mps 757 mmHg 73%
    22:00 +13°C° 0 mm 6 mps 757 mmHg 74%
    23:00 +11°C° 0 mm 6 mps 756 mmHg 74%

    Day after tomorrow, 22 April, Monday

    Time Temperature Precipitation Wind Pressure Humidity
    00:00 +10°C° 0 mm 6 mps 756 mmHg 74%
    01:00 +10°C° 0 mm 6 mps 756 mmHg 75%
    02:00 +10°C° 0 mm 6 mps 755 mmHg 75%
    03:00 +9°C° 0 mm 6 mps 755 mmHg 76%
    04:00 +9°C° 0 mm 6 mps 755 mmHg 77%
    05:00 +9°C° 0 mm 6 mps 755 mmHg 78%
    06:00 +9°C° 0 mm 6 mps 755 mmHg 79%
    07:00 +11°C° 0 mm 6 mps 755 mmHg 74%
    08:00 +13°C° 0 mm 6 mps 755 mmHg 70%
    09:00 +15°C° 0 mm 6 mps 755 mmHg 65%
    10:00 +15°C° 0 mm 6 mps 755 mmHg 64%
    11:00 +16°C° 0 mm 7 mps 754 mmHg 63%
    12:00 +16°C° 0 mm 7 mps 754 mmHg 63%
    13:00 +16°C° 0 mm 7 mps 754 mmHg 62%
    14:00 +15°C° 0 mm 7 mps 754 mmHg 62%
    15:00 +13°C° 0 mm 8 mps 754 mmHg 62%
    16:00 +12°C° 0 mm 7 mps 753 mmHg 66%
    17:00 +11°C° 0 mm 7 mps 753 mmHg 70%
    18:00 +10°C° 0 mm 6 mps 753 mmHg 74%
    19:00 +9°C° 0 mm 5 mps 754 mmHg 80%
    20:00 +8°C° 0 mm 5 mps 754 mmHg 86%
    21:00 +6°C° 0 mm 4 mps 754 mmHg 92%
    22:00 +6°C° 0 mm 4 mps 754 mmHg 94%
    23:00 +6°C° 0 mm 4 mps 754 mmHg 95%

    23 April, Tuesday

    Time Temperature Precipitation Wind Pressure Humidity
    00:00 +5°C° 0 mm 4 mps 754 mmHg 96%
    01:00 +5°C° 0 mm 3 mps 754 mmHg 97%
    02:00 +5°C° 0 mm 3 mps 754 mmHg 97%
    03:00 +5°C° 0 mm 3 mps 753 mmHg 97%
    04:00 +6°C° 0 mm 4 mps 753 mmHg 96%
    05:00 +6°C° 0 mm 4 mps 753 mmHg 96%
    06:00 +7°C° 0 mm 5 mps 753 mmHg 95%
    07:00 +8°C° 0 mm 6 mps 753 mmHg 89%
    08:00 +9°C° 0 mm 6 mps 753 mmHg 83%
    09:00 +10°C° 0 mm 7 mps 753 mmHg 77%
    10:00 +11°C° 0 mm 7 mps 753 mmHg 75%
    11:00 +11°C° 0 mm 8 mps 753 mmHg 73%
    12:00 +11°C° 0 mm 8 mps 753 mmHg 72%
    13:00 +11°C° 0 mm 8 mps 753 mmHg 73%
    14:00 +11°C° 0 mm 8 mps 753 mmHg 73%
    15:00 +11°C° 0 mm 8 mps 753 mmHg 74%
    16:00 +10°C° 0 mm 7 mps 752 mmHg 78%
    17:00 +9°C° 0 mm 7 mps 752 mmHg 82%
    18:00 +8°C° 0 mm 7 mps 752 mmHg 86%
    19:00 +8°C° 0 mm 6 mps 753 mmHg 88%
    20:00 +7°C° 0 mm 6 mps 753 mmHg 90%
    21:00 +6°C° 0 mm 5 mps 753 mmHg 93%
    22:00 +6°C° 0 mm 5 mps 753 mmHg 94%
    23:00 +5°C° 0 mm 4 mps 752 mmHg 95%

    24 April, Wednesday

    Time Temperature Precipitation Wind Pressure Humidity
    00:00 +5°C° 0 mm 4 mps 752 mmHg 97%
    01:00 +5°C° 0 mm 4 mps 752 mmHg 97%
    02:00 +5°C° 0 mm 4 mps 751 mmHg 97%
    03:00 +5°C° 0 mm 4 mps 751 mmHg 98%
    04:00 +5°C° 0 mm 4 mps 751 mmHg 97%
    05:00 +6°C° 0 mm 4 mps 750 mmHg 96%
    06:00 +7°C° 0 mm 5 mps 750 mmHg 95%
    07:00 +7°C° 0 mm 5 mps 750 mmHg 92%
    08:00 +8°C° 0 mm 6 mps 750 mmHg 89%
    09:00 +9°C° 0 mm 6 mps 750 mmHg 87%
    10:00 +9°C° 0 mm 6 mps 749 mmHg 85%
    11:00 +9°C° 0 mm 7 mps 749 mmHg 84%
    12:00 +10°C° 0 mm 7 mps 749 mmHg 83%
    13:00 +10°C° 0 mm 7 mps 748 mmHg 82%
    14:00 +10°C° 0 mm 7 mps 748 mmHg 81%
    15:00 +10°C° 0 mm 8 mps 748 mmHg 81%
    16:00 +10°C° 0 mm 7 mps 747 mmHg 84%
    17:00 +9°C° 0 mm 7 mps 747 mmHg 87%
    18:00 +8°C° 0 mm 7 mps 747 mmHg 90%
    19:00 +7°C° 0.1 mm 8 mps 747 mmHg 92%
    20:00 +7°C° 0.1 mm 8 mps 747 mmHg 93%
    21:00 +7°C° 0.1 mm 8 mps 747 mmHg 95%
    22:00 +8°C° 0.3 mm 7 mps 747 mmHg 91%
    23:00 +8°C° 0.3 mm 6 mps 747 mmHg 87%

    25 April, Thursday

    Time Temperature Precipitation Wind Pressure Humidity
    00:00 +8°C° 0.3 mm 5 mps 747 mmHg 83%
    01:00 +8°C° 0 mm 5 mps 747 mmHg 85%
    02:00 +7°C° 0 mm 6 mps 747 mmHg 86%
    03:00 +7°C° 0 mm 6 mps 747 mmHg 88%
    04:00 +7°C° 0 mm 6 mps 747 mmHg 88%
    05:00 +6°C° 0 mm 7 mps 748 mmHg 88%
    06:00 +6°C° 0 mm 7 mps 748 mmHg 87%
    07:00 +8°C° 0 mm 7 mps 748 mmHg 84%
    08:00 +9°C° 0 mm 8 mps 748 mmHg 81%
    09:00 +10°C° 0 mm 8 mps 748 mmHg 78%
    10:00 +10°C° 0 mm 9 mps 748 mmHg 75%
    11:00 +11°C° 0 mm 9 mps 748 mmHg 72%
    12:00 +11°C° 0 mm 9 mps 748 mmHg 69%
    13:00 +11°C° 0 mm 9 mps 748 mmHg 69%
    14:00 +11°C° 0 mm 10 mps 748 mmHg 69%
    15:00 +11°C° 0 mm 10 mps 748 mmHg 69%
    16:00 +9°C° 0.1 mm 10 mps 748 mmHg 76%
    17:00 +8°C° 0.1 mm 11 mps 748 mmHg 82%
    18:00 +7°C° 0.1 mm 11 mps 748 mmHg 89%
    19:00 +7°C° 0 mm 10 mps 749 mmHg 87%
    20:00 +6°C° 0 mm 8 mps 750 mmHg 85%
    21:00 +5°C° 0 mm 7 mps 750 mmHg 83%
    22:00 +5°C° 0 mm 6 mps 751 mmHg 86%
    23:00 +5°C° 0 mm 5 mps 751 mmHg 89%
    Show more